This is the latest recevied weather packets stored in our database for station/object N4DBJ. If no packets are shown the sender has not sent any weather packets the latest 10 day(s).
| Time | Temp. | Humidity | Pressure | Rain* | Wind** | Luminosity | Snow |
|---|---|---|---|---|---|---|---|
| 1777921239 | 26.11° C | 48% | 1008.9 hPa | 0 mm | - | 692 W/m² | - |
| 1777920936 | 26.11° C | 47% | 1008.7 hPa | 0 mm | - | 326 W/m² | - |
| 1777920632 | 26.11° C | 52% | 1008.6 hPa | 0 mm | - | 695 W/m² | - |
| 1777920328 | 25° C | 52% | 1009 hPa | 0 mm | - | 712 W/m² | - |
| 1777920023 | 25.56° C | 50% | 1009 hPa | 0 mm | - | 221 W/m² | - |
| 1777919721 | 25.56° C | 49% | 1009.2 hPa | 0 mm | - | 186 W/m² | - |
| 1777919419 | 25.56° C | 47% | 1008.9 hPa | 0 mm | - | 771 W/m² | - |
| 1777919115 | 26.11° C | 49% | 1009.1 hPa | 0 mm | - | 222 W/m² | - |
| 1777918813 | 25.56° C | 48% | 1009.2 hPa | 0 mm | - | 754 W/m² | - |
| 1777918510 | 26.11° C | 49% | 1009.3 hPa | 0 mm | - | 181 W/m² | - |
| 1777918208 | 26.67° C | 50% | 1009.2 hPa | 0 mm | - | 175 W/m² | - |
| 1777917907 | 26.67° C | 48% | 1009.3 hPa | 0 mm | - | 788 W/m² | - |
| 1777917605 | 26.11° C | 49% | 1009.5 hPa | 0 mm | - | 767 W/m² | - |
| 1777917302 | 26.11° C | 53% | 1009.5 hPa | 0 mm | - | 753 W/m² | - |
| 1777916999 | 26.11° C | 50% | 1009.3 hPa | 0 mm | - | 730 W/m² | - |
| 1777916697 | 25.56° C | 50% | 1009.4 hPa | 0 mm | - | 740 W/m² | - |
| 1777916393 | 25.56° C | 51% | 1009.5 hPa | 0 mm | - | 740 W/m² | - |
| 1777916090 | 25° C | 52% | 1009.5 hPa | 0 mm | - | 753 W/m² | - |
| 1777915787 | 25.56° C | 49% | 1009.4 hPa | 0 mm | - | 753 W/m² | - |
| 1777915483 | 25° C | 52% | 1009.6 hPa | 0 mm | - | 732 W/m² | - |
| 1777915180 | 25° C | 50% | 1009.4 hPa | 0 mm | - | 744 W/m² | - |
| 1777914877 | 25° C | 53% | 1009.7 hPa | 0 mm | - | 760 W/m² | - |
| 1777914574 | 25° C | 55% | 1009.9 hPa | 0 mm | - | 742 W/m² | - |
| 1777914270 | 25.56° C | 52% | 1010 hPa | 0 mm | - | 750 W/m² | - |
| 1777913967 | 25° C | 58% | 1009.9 hPa | 0 mm | - | 779 W/m² | - |
* Rain latest hour (hover to see other rain measurements)
** Current wind speed in m/s (hover to see current wind gust speed)